Location: Newark
(51.3318°N, 0.0053°E)
Time: 06:56:55
(UTC+00:00)

CUBEBUG 2 - Pass Details

Date: 02 July 2022
Orbit: 584 x 692 km, 97.7° (Epoch: 12 August)

Event Time Altitude Azimuth Distance (km) Brightness Sun altitude
Rises 02:36:03 0° 19° (NNE) 2,832 ? -8.5°
Reaches altitude 10° 02:38:19 10° 27° (NNE) 1,934 ? -8.3°
Maximum altitude 02:42:16 40° 98° (E) 892 ? -7.9°
Drops below altitude 10° 02:46:17 10° 169° (SSE) 1,963 ? -7.5°
Enters shadow 02:48:18 - 176° (S) 2,759 ? -7.3°
